Location: Colebrook
(42.0017°N, 73.0973°W)
Time: 04:42:06
(UTC-04:00)

Transit 4A - Visible Passes

Search period start: 21 October 2021 00:00
Search period end: 31 October 2021 00:00
Orbit: 869 x 975 km, 66.8° (Epoch: 20 October)

Date Brightness Start Highest point End Pass type
(mag) Time Alt. Az. Time Alt. Az. Time Alt. Az.
21 Oct 10.5 04:33:03 10° SE 04:36:15 15° ESE 04:39:27 10° ENE visible
21 Oct 7.7 06:15:58 10° SSW 06:21:46 80° WNW 06:27:42 10° NNE visible
22 Oct 9.9 04:40:45 10° SSE 04:45:13 24° ESE 04:49:46 10° NE visible
22 Oct 7.9 06:25:27 10° SW 06:31:07 55° NW 06:36:56 10° NNE visible
23 Oct 9.2 04:49:06 10° S 04:54:17 36° ESE 04:59:35 10° NE visible
23 Oct 8.3 06:35:10 10° WSW 06:40:34 39° NW 06:46:04 10° NNE visible
24 Oct 8.4 04:59:13 18° S 05:03:26 54° ESE 05:09:09 10° NE visible
24 Oct 8.7 06:45:09 10° WSW 06:50:05 28° NW 06:55:08 10° NNE visible
25 Oct 10.5 03:26:08 10° ESE 03:27:21 11° E 03:28:48 10° E visible
25 Oct 7.8 05:09:44 31° SSW 05:12:39 81° ESE 05:18:34 10° NNE visible
26 Oct 10.0 03:36:23 18° ESE 03:36:23 18° ESE 03:40:04 10° ENE visible
26 Oct 7.7 05:19:58 42° SW 05:21:57 70° WNW 05:27:52 10° NNE visible
27 Oct 9.6 03:46:24 26° E 03:46:24 26° E 03:50:10 10° NE visible
27 Oct 8.0 05:29:58 41° W 05:31:20 48° NW 05:37:03 10° NNE visible
28 Oct 9.3 03:56:15 32° ENE 03:56:15 32° ENE 03:59:53 10° NE visible
28 Oct 8.4 05:39:49 32° WNW 05:40:48 34° NW 05:46:11 10° NNE visible
29 Oct 9.1 04:05:58 35° NE 04:05:58 35° NE 04:09:23 10° NE visible
29 Oct 8.8 05:49:31 24° WNW 05:50:21 25° NW 05:55:12 10° N visible
30 Oct 9.1 04:15:34 33° NNE 04:15:34 33° NNE 04:18:44 10° NNE visible
30 Oct 9.2 05:59:06 18° NW 06:00:01 19° NW 06:04:07 10° N visible
